This demonstration page uses our WeatherBlox Daily Observations layout. Learn more.

38.89511, -77.03637

Hourly Observations for January 23, 2015

Temp ( °F °C ) Dew Point ( °F °C ) Humidity (%) Winds ( mph kmh ) Pressure ( in mb ) Visibility ( mi km ) Precip ( " mm )
12:52 am 00:52 Mostly Cloudy 37 3 25 -4 60 60 NNW 6 9 30.39 1029 10 16.09344 0 0
1:52 am 01:52 Mostly Cloudy 37 3 25 -4 60 60 NNW 5 7 30.39 1029 10 16.09344 0 0
2:52 am 02:52 Partly Cloudy 37 3 25 -4 60 60 NNW 5 7 30.39 1029 10 16.09344 0 0
3:52 am 03:52 Partly Cloudy 36 2 23 -5 60 60 W 5 7 30.39 1029 10 16.09344 0 0
4:52 am 04:52 Mostly Clear 34 1 25 -4 70 70 Calm 30.39 1029 10 16.09344 0 0
5:52 am 05:52 Partly Cloudy 34 1 27 -3 75 75 NNE 5 7 30.39 1029 10 16.09344 0 0
6:52 am 06:52 Mostly Cloudy 34 1 25 -4 70 70 Calm 30.36 1028 10 16.09344 0 0
7:52 am 07:52 Cloudy 32 0 25 -4 75 75 SSW 5 7 30.36 1028 10 16.09344 0 0
8:52 am 08:52 Cloudy 36 2 27 -3 70 70 Calm 30.36 1028 10 16.09344 0 0
9:52 am 09:52 Cloudy 36 2 28 -2 75 75 S 6 9 30.36 1028 9 14.484096 0 0
10:52 am 10:52 Cloudy 39 4 27 -3 61 61 SSE 5 7 30.36 1028 10 16.09344 0 0
11:52 am 11:52 Cloudy 41 5 27 -3 57 57 S 7 11 30.3 1026 10 16.09344 0 0
12:52 pm 12:52 Cloudy 41 5 25 -4 53 53 SSE 7 11 30.27 1025 10 16.09344 0 0
1:52 pm 13:52 Cloudy 43 6 25 -4 49 49 SSW 9 15 30.24 1024 10 16.09344 0 0
2:52 pm 14:52 Cloudy 43 6 27 -3 53 53 S 9 15 30.18 1022 10 16.09344 0 0
3:52 pm 15:52 Cloudy 41 5 27 -3 57 57 S 5 7 30.18 1022 10 16.09344 0 0
4:11 pm 16:11 Cloudy with Light Rain 41 5 27 -3 57 57 S 7 11 30.18 1022 10 16.09344 0.001 0.001
4:52 pm 16:52 Cloudy with Light Rain 41 5 28 -2 61 61 SSW 8 13 30.15 1021 10 16.09344 0.001 0.001
5:15 pm 17:15 Cloudy 39 4 28 -2 65 65 SSW 7 11 30.15 1021 8 12.874752 0.001 0.001
5:52 pm 17:52 Cloudy with Light Rain/Snow 37 3 30 -1 75 75 S 7 11 30.15 1021 7 11.265408 0.02 0.508
6:15 pm 18:15 Cloudy 37 3 30 -1 75 75 S 8 13 30.15 1021 7 11.265408 0.02 0.508
6:25 pm 18:25 Cloudy 37 3 30 -1 75 75 S 9 15 30.15 1021 8 12.874752 0.03 0.762
6:52 pm 18:52 Cloudy 37 3 30 -1 75 75 S 8 13 30.12 1020 6 9.656064 0.05 1.27
7:01 pm 19:01 Cloudy with Light Rain/Snow 37 3 30 -1 75 75 S 9 15 30.12 1020 6 9.656064 0.01 0.254
7:16 pm 19:16 Cloudy with Light Rain 37 3 30 -1 75 75 S 5 7 30.12 1020 6 9.656064 0 0
7:52 pm 19:52 Cloudy with Light Rain/Snow 37 3 32 0 81 81 S 5 7 30.09 1019 5 8.04672 0.03 0.762
8:18 pm 20:18 Cloudy with Light Rain 37 3 32 0 81 81 S 5 7 30.09 1019 5 8.04672 0 0
8:43 pm 20:43 Cloudy with Light Rain 37 3 32 0 81 81 Calm 30.06 1018 4 6.437376 0.04 1.016
8:52 pm 20:52 Cloudy with Light Rain 37 3 32 0 81 81 Calm 30.06 1018 4 6.437376 0.05 1.27
8:59 pm 20:59 Cloudy with Light Rain 37 3 32 0 81 81 Calm 30.03 1017 4 6.437376 0.01 0.254
9:42 pm 21:42 Cloudy with Rain 37 3 32 0 81 81 NE 3 6 30 1016 3 4.828032 0 0
9:52 pm 21:52 Cloudy with Rain 37 3 34 1 87 87 NE 3 6 30 1016 3 4.828032 0.13 3.302
10:23 pm 22:23 Cloudy with Rain 37 3 34 1 87 87 NE 5 7 29.97 1015 2.5 4.02336 0.09 2.286
10:31 pm 22:31 Cloudy with Rain 37 3 34 1 87 87 NE 6 9 29.97 1015 3 4.828032 0.11 2.794
10:39 pm 22:39 Cloudy with Light Rain 37 3 34 1 87 87 NNE 6 9 29.94 1014 3 4.828032 0.12 3.048
10:44 pm 22:44 Cloudy with Light Rain 37 3 34 1 87 87 NE 8 13 29.94 1014 3 4.828032 0 0
10:52 pm 22:52 Cloudy with Light Rain 37 3 34 1 87 87 NE 9 15 29.94 1014 3 4.828032 0.14 3.556
10:59 pm 22:59 Cloudy with Light Rain 37 3 34 1 87 87 NE 9 15 29.91 1013 2.5 4.02336 0.01 0.254
11:35 pm 23:35 Cloudy with Rain 37 3 34 1 87 87 NE 10 17 29.88 1012 2.5 4.02336 0.14 3.556
11:52 pm 23:52 Cloudy with Rain 37 3 34 1 87 87 NNE 9 15 29.85 1011 3 4.828032 0.2 5.08

Powered by AerisWeather